Tracking 35051 objects as of 17-Aug-2026
HD Live streaming from Space Station
objects crossing your sky now

FREGAT DEB


10-day predictions


NORAD ID: 45868
Int'l Code: 2011-037CS
Launch date: July 18, 2011
Source: Commonwealth of Independent States (former USSR) (CIS)
Launch site: TYURATAM MISSILE AND SPACE COMPLEX (TTMTR)

Note: This is SATELLITE DEBRIS
Your satellite tracking list
Your tracking list is empty




NASA's NSSDC Master Catalog

Two Line Element Set (TLE):
1 45868U 11037CS  24278.44549652  .01227318  00000-0  37693+1 0  9997
2 45868  50.7741 282.9424 1409213  84.4969  52.3760 11.23972923174394
Source of the keplerian elements: AFSPC